Flag for U.S.A. Weather past 2 weeks in Chattanooga, Tennessee, U.S.A.

Now
86 °F

Scattered clouds.


Feels Like: 89 °F
Forecast: 72 / 83 °F
Wind: 8 mph from Northwest

Location: Lovell Field

Current Time: Jul 24, 2014 at 4:50:39 PM

Latest Report: Jul 24, 2014 at 3:53 PM


Visibility: 10 mi

Pressure: 29.91 "Hg

Humidity: 55%

Dew point: 68 °F

Location of ChattanoogaLocation

Historic Weather in Chattanooga — Graph

°F

Chattanooga temperature yesterday

Maximum temperature yesterday: 90 °F (at 1:53 PM)
Minimum temperature yesterday: 71 °F (at 5:53 AM)
Average temperature yesterday: 80 °F

Past Weeks' High & Low Weather Summary

 TemperatureHumidityPressure
High94 °F (Jul 14, 4:53 PM)94% (Jul 21, 5:53 AM)30.20 "Hg (Jul 21, 5:53 AM)
Low60 °F (Jul 17, 4:53 AM)33% (Jul 11, 4:53 PM)29.83 "Hg (Jul 15, 4:53 PM)
Average77 °F71%30.03 "Hg
* Reported Jul 9 3:53 PM — Jul 24 3:53 PM, Chattanooga, Weather by CustomWeather, © 2014

Note: Actual official high and low records may vary slightly from our data, if they occured in-between our weather recording intervals... More about our weather records

Advertising

Chattanooga weather history for previous 24 hours

 ConditionsComfort  
Time TempWeatherWind HumidityBarometerVisibility
3:53 PM
Jul 24
86 °FScattered clouds.8 mph55%29.91 "Hg10 mi
2:53 PM85 °FBroken clouds.No wind55%29.94 "Hg10 mi
1:53 PM83 °FBroken clouds.No wind63%29.95 "Hg10 mi
12:53 PM79 °FLight rain. Partly sunny.5 mph74%29.97 "Hg10 mi
11:53 AM79 °FCloudy.No wind74%29.98 "Hg10 mi
10:53 AM79 °FCloudy.3 mph74%29.98 "Hg10 mi
9:53 AM76 °FCloudy.No wind85%29.98 "Hg10 mi
8:53 AM75 °FMostly cloudy.3 mph85%29.97 "Hg10 mi
8:00 AM74 °FBroken clouds.No wind88%29.99 "Hg10 mi
6:53 AM72 °FPassing clouds.No wind91%29.94 "Hg8 mi
5:53 AM73 °FPassing clouds.No wind88%29.93 "Hg10 mi
4:53 AM74 °FPassing clouds.3 mph88%29.93 "Hg10 mi
3:53 AM74 °FClear.No wind88%29.93 "Hg10 mi
2:53 AM75 °FPassing clouds.5 mph85%29.95 "Hg10 mi
1:53 AM76 °FClear.3 mph85%29.94 "Hg10 mi
12:53 AM78 °FClear.No wind82%29.97 "Hg10 mi
11:53 PM
Jul 23
78 °FPassing clouds.No wind82%29.98 "Hg10 mi
10:53 PM79 °FPassing clouds.No wind79%29.98 "Hg10 mi
9:53 PM78 °FPassing clouds.3 mph79%29.97 "Hg10 mi
8:53 PM81 °FScattered clouds.3 mph72%29.96 "Hg10 mi
7:53 PM85 °FScattered clouds.7 mph61%29.94 "Hg10 mi
6:53 PM86 °FBroken clouds.5 mph59%29.96 "Hg10 mi
5:53 PM85 °FBroken clouds.6 mph61%29.96 "Hg10 mi
4:53 PM86 °FBroken clouds.7 mph59%29.98 "Hg10 mi
Weather by CustomWeather, © 2014

See weather overviewHow to use our weather pages